Location: ????????
(55.4000°N, 39.1167°E)
Time: 02:43:05
(UTC+00:00)

Meteor 1-14 Rocket - Pass Details

Date: 19 May 2025
Orbit: 833 x 917 km, 81.3° (Epoch: 14 June)

Event Time Altitude Azimuth Distance (km) Brightness Sun altitude
Rises 19:28:23 0° 344° (NNW) 3,406 9.3 -11.0°
Reaches altitude 10° 19:30:48 10° 342° (NNW) 2,474 8.2 -11.1°
Maximum altitude 19:36:21 67° 261° (W) 924 4.5 -11.5°
Enters shadow 19:41:26 13° 181° (S) 2,302 5.9 -11.8°
